Time,TemperatureF,DewpointF,PressureIn,WindDirection,WindDirectionDegrees,WindSpeedMPH,WindSpeedGustMPH,Humidity,HourlyPrecipIn,Conditions,Clouds,dailyrainin,SoftwareType,DateUTC
2013-10-30 00:13:00,40.0,36.0,30.29,SSE,153,0.0,0.0,84,0.01,,,0.01,,2013-10-30 04:13:00,
2013-10-30 00:44:00,40.0,36.0,30.28,ESE,107,0.0,0.0,87,0.02,,,0.02,,2013-10-30 04:44:00,
2013-10-30 00:53:00,39.0,36.0,30.28,ESE,107,0.0,0.0,88,0.02,,,0.02,,2013-10-30 04:53:00,
2013-10-30 01:13:00,39.0,36.0,30.27,ESE,111,0.0,0.0,88,0.01,,,0.02,,2013-10-30 05:13:00,
2013-10-30 01:22:00,39.0,36.0,30.26,ESE,111,0.0,0.0,89,0.01,,,0.02,,2013-10-30 05:22:00,
2013-10-30 01:53:00,39.0,36.0,30.26,ESE,111,0.0,0.0,90,0.00,,,0.02,,2013-10-30 05:53:00,
2013-10-30 02:13:00,39.0,37.0,30.25,ESE,111,0.0,0.0,91,0.00,,,0.02,,2013-10-30 06:13:00,
2013-10-30 02:22:00,39.0,37.0,30.25,ESE,111,0.0,0.0,91,0.00,,,0.02,,2013-10-30 06:22:00,
2013-10-30 02:42:00,39.0,37.0,30.25,ESE,111,0.0,0.0,92,0.00,,,0.02,,2013-10-30 06:42:00,
2013-10-30 02:52:00,39.0,37.0,30.24,ESE,111,0.0,0.0,92,0.00,,,0.02,,2013-10-30 06:52:00,
2013-10-30 03:12:00,39.0,37.0,30.24,ESE,111,0.0,0.0,92,0.00,,,0.02,,2013-10-30 07:12:00,
2013-10-30 03:22:00,39.0,37.0,30.24,ESE,111,0.0,0.0,92,0.00,,,0.02,,2013-10-30 07:22:00,
2013-10-30 03:42:00,39.0,37.0,30.24,ESE,111,0.0,0.0,92,0.00,,,0.02,,2013-10-30 07:42:00,
2013-10-30 03:52:00,39.0,37.0,30.24,ESE,111,0.0,0.0,92,0.00,,,0.02,,2013-10-30 07:52:00,
2013-10-30 04:12:00,39.0,37.0,30.24,ESE,111,0.0,0.0,92,0.00,,,0.02,,2013-10-30 08:12:00,
2013-10-30 04:22:00,39.0,37.0,30.24,ESE,111,0.0,0.0,92,0.00,,,0.02,,2013-10-30 08:22:00,
2013-10-30 04:42:00,39.0,37.0,30.24,ESE,111,0.0,0.0,93,0.00,,,0.02,,2013-10-30 08:42:00,
2013-10-30 04:52:00,39.0,37.0,30.23,ESE,111,0.0,0.0,93,0.00,,,0.02,,2013-10-30 08:52:00,
2013-10-30 05:11:00,39.0,37.0,30.22,ESE,111,0.0,0.0,93,0.00,,,0.02,,2013-10-30 09:11:00,
2013-10-30 05:22:00,39.0,37.0,30.22,ESE,111,0.0,0.0,93,0.00,,,0.02,,2013-10-30 09:22:00,
2013-10-30 05:43:00,38.0,36.0,30.22,ESE,111,0.0,0.0,93,0.00,,,0.02,,2013-10-30 09:43:00,
2013-10-30 05:54:00,38.0,36.0,30.22,ESE,111,0.0,0.0,93,0.00,,,0.02,,2013-10-30 09:54:00,
2013-10-30 06:13:00,38.0,36.0,30.23,ESE,111,0.0,0.0,93,0.00,,,0.02,,2013-10-30 10:13:00,
2013-10-30 06:23:00,38.0,36.0,30.22,ESE,111,0.0,0.0,93,0.00,,,0.02,,2013-10-30 10:23:00,
2013-10-30 06:43:00,38.0,36.0,30.22,ESE,111,0.0,0.0,93,0.00,,,0.02,,2013-10-30 10:43:00,
2013-10-30 06:53:00,38.0,36.0,30.22,ESE,111,0.0,0.0,93,0.00,,,0.02,,2013-10-30 10:53:00,
2013-10-30 07:12:00,38.0,36.0,30.22,ESE,111,0.0,0.0,93,0.00,,,0.02,,2013-10-30 11:12:00,
2013-10-30 07:22:00,38.0,36.0,30.22,ESE,109,0.0,1.0,94,0.00,,,0.02,,2013-10-30 11:22:00,
2013-10-30 07:42:00,38.0,36.0,30.22,ESE,110,0.0,1.0,94,0.00,,,0.02,,2013-10-30 11:42:00,
2013-10-30 07:52:00,38.0,36.0,30.22,ESE,110,0.0,0.0,94,0.00,,,0.02,,2013-10-30 11:52:00,
2013-10-30 08:12:00,38.0,36.0,30.22,ESE,110,0.0,0.0,94,0.00,,,0.02,,2013-10-30 12:12:00,
2013-10-30 08:22:00,38.0,36.0,30.22,ESE,110,0.0,0.0,93,0.00,,,0.02,,2013-10-30 12:22:00,
2013-10-30 08:42:00,38.0,36.0,30.23,ESE,110,0.0,0.0,93,0.00,,,0.02,,2013-10-30 12:42:00,
2013-10-30 08:52:00,38.0,36.0,30.23,ESE,110,0.0,0.0,94,0.00,,,0.02,,2013-10-30 12:52:00,
2013-10-30 09:11:00,38.0,36.0,30.24,ESE,110,0.0,0.0,94,0.00,,,0.02,,2013-10-30 13:11:00,
2013-10-30 09:22:00,39.0,37.0,30.24,ESE,110,0.0,0.0,94,0.00,,,0.02,,2013-10-30 13:22:00,
2013-10-30 09:52:00,41.0,39.0,30.24,ESE,110,0.0,0.0,94,0.00,,,0.02,,2013-10-30 13:52:00,
2013-10-30 10:11:00,42.0,40.0,30.24,East,92,0.0,0.0,93,0.00,,,0.02,,2013-10-30 14:11:00,
2013-10-30 10:21:00,43.0,41.0,30.24,East,92,0.0,0.0,94,0.00,,,0.02,,2013-10-30 14:21:00,
2013-10-30 10:42:00,46.0,43.0,30.24,SE,140,0.0,1.0,89,0.00,,,0.02,,2013-10-30 14:42:00,
2013-10-30 10:52:00,47.0,43.0,30.24,SE,124,0.0,0.0,87,0.00,,,0.02,,2013-10-30 14:52:00,
2013-10-30 11:11:00,47.0,43.0,30.24,SE,126,0.0,0.0,85,0.00,,,0.02,,2013-10-30 15:11:00,
2013-10-30 11:22:00,48.0,42.0,30.23,ESE,115,0.0,1.0,81,0.00,,,0.02,,2013-10-30 15:22:00,
2013-10-30 11:43:00,49.0,43.0,30.23,East,83,0.0,0.0,79,0.00,,,0.02,,2013-10-30 15:43:00,
2013-10-30 11:54:00,49.0,43.0,30.22,ENE,67,0.0,1.0,81,0.00,,,0.02,,2013-10-30 15:54:00,
2013-10-30 12:12:00,50.0,44.0,30.22,ENE,67,0.0,6.0,81,0.00,,,0.02,,2013-10-30 16:12:00,
2013-10-30 12:23:00,50.0,44.0,30.22,East,89,0.0,6.0,79,0.00,,,0.02,,2013-10-30 16:23:00,
2013-10-30 12:43:00,52.0,42.0,30.21,ESE,119,0.0,6.0,68,0.00,,,0.02,,2013-10-30 16:43:00,
2013-10-30 12:53:00,52.0,41.0,30.21,SE,138,0.0,4.0,66,0.00,,,0.02,,2013-10-30 16:53:00,
2013-10-30 13:23:00,55.0,43.0,30.19,East,85,4.0,5.0,64,0.00,,,0.02,,2013-10-30 17:23:00,
2013-10-30 13:42:00,56.0,42.0,30.18,SE,131,3.0,4.0,59,0.00,,,0.02,,2013-10-30 17:42:00,
2013-10-30 13:52:00,56.0,43.0,30.17,NE,53,0.0,5.0,62,0.00,,,0.02,,2013-10-30 17:52:00,
2013-10-30 14:12:00,57.0,44.0,30.18,NNE,23,0.0,5.0,61,0.00,,,0.02,,2013-10-30 18:12:00,
2013-10-30 14:22:00,57.0,44.0,30.17,NE,42,0.0,3.0,62,0.00,,,0.02,,2013-10-30 18:22:00,
2013-10-30 14:42:00,57.0,44.0,30.16,ENE,57,0.0,6.0,61,0.00,,,0.02,,2013-10-30 18:42:00,
2013-10-30 14:52:00,57.0,43.0,30.16,NNW,348,0.0,4.0,60,0.00,,,0.02,,2013-10-30 18:52:00,
2013-10-30 15:11:00,57.0,44.0,30.16,NE,37,0.0,4.0,61,0.00,,,0.02,,2013-10-30 19:11:00,
2013-10-30 15:22:00,58.0,44.0,30.15,NNE,26,0.0,2.0,60,0.00,,,0.02,,2013-10-30 19:22:00,
2013-10-30 15:52:00,57.0,43.0,30.14,ENE,70,0.0,2.0,60,0.00,,,0.02,,2013-10-30 19:52:00,
2013-10-30 16:12:00,56.0,44.0,30.14,ENE,70,0.0,0.0,63,0.00,,,0.02,,2013-10-30 20:12:00,
2013-10-30 16:22:00,56.0,44.0,30.13,ENE,70,0.0,0.0,63,0.00,,,0.02,,2013-10-30 20:22:00,
2013-10-30 16:42:00,56.0,46.0,30.13,ENE,70,0.0,1.0,68,0.00,,,0.02,,2013-10-30 20:42:00,
2013-10-30 16:52:00,56.0,45.0,30.13,ENE,68,0.0,0.0,66,0.00,,,0.02,,2013-10-30 20:52:00,
2013-10-30 17:22:00,54.0,45.0,30.14,NNE,17,0.0,1.0,71,0.00,,,0.02,,2013-10-30 21:22:00,
2013-10-30 17:53:00,53.0,43.0,30.14,NE,55,0.0,6.0,69,0.00,,,0.02,,2013-10-30 21:53:00,
2013-10-30 18:13:00,52.0,43.0,30.14,ENE,67,0.0,3.0,70,0.00,,,0.02,,2013-10-30 22:13:00,
2013-10-30 18:23:00,51.0,42.0,30.14,ENE,67,0.0,1.0,71,0.00,,,0.02,,2013-10-30 22:23:00,
2013-10-30 18:43:00,49.0,41.0,30.14,ENE,67,0.0,0.0,74,0.00,,,0.02,,2013-10-30 22:43:00,
2013-10-30 18:53:00,48.0,40.0,30.14,ENE,67,0.0,0.0,75,0.00,,,0.02,,2013-10-30 22:53:00,
2013-10-30 19:12:00,47.0,41.0,30.14,ENE,67,0.0,0.0,78,0.00,,,0.02,,2013-10-30 23:12:00,
2013-10-30 19:23:00,47.0,41.0,30.13,ENE,67,0.0,0.0,79,0.00,,,0.02,,2013-10-30 23:23:00,
2013-10-30 19:42:00,45.0,40.0,30.13,ENE,67,0.0,0.0,82,0.00,,,0.02,,2013-10-30 23:42:00,
2013-10-30 19:53:00,46.0,41.0,30.13,ENE,67,0.0,0.0,82,0.00,,,0.02,,2013-10-30 23:53:00,
2013-10-30 20:11:00,46.0,41.0,30.13,ENE,67,0.0,0.0,81,0.00,,,0.02,,2013-10-31 00:11:00,
2013-10-30 20:22:00,45.0,40.0,30.13,ENE,67,0.0,0.0,81,0.00,,,0.02,,2013-10-31 00:22:00,
2013-10-30 20:42:00,43.0,39.0,30.14,ENE,74,0.0,0.0,85,0.00,,,0.02,,2013-10-31 00:42:00,
2013-10-30 20:52:00,43.0,39.0,30.13,East,86,0.0,0.0,87,0.00,,,0.02,,2013-10-31 00:52:00,
2013-10-30 21:12:00,44.0,41.0,30.12,East,89,0.0,5.0,89,0.00,,,0.02,,2013-10-31 01:12:00,
2013-10-30 21:22:00,45.0,41.0,30.12,SE,131,3.0,6.0,87,0.00,,,0.02,,2013-10-31 01:22:00,
2013-10-30 21:42:00,46.0,41.0,30.11,SSE,160,3.0,10.0,84,0.00,,,0.02,,2013-10-31 01:42:00,
2013-10-30 21:52:00,47.0,42.0,30.11,SE,146,3.0,9.0,83,0.00,,,0.02,,2013-10-31 01:52:00,
2013-10-30 22:12:00,47.0,42.0,30.12,South,180,2.0,8.0,82,0.00,,,0.02,,2013-10-31 02:12:00,
2013-10-30 22:22:00,47.0,41.0,30.13,South,178,0.0,7.0,81,0.00,,,0.02,,2013-10-31 02:22:00,
2013-10-30 23:12:00,47.0,41.0,30.11,SSE,157,0.0,4.0,81,0.00,,,0.02,,2013-10-31 03:12:00,
2013-10-30 23:22:00,47.0,41.0,30.10,SSE,156,2.0,7.0,81,0.00,,,0.02,,2013-10-31 03:22:00,
2013-10-30 23:44:00,47.0,42.0,30.09,South,173,1.0,10.0,82,0.00,,,0.02,,2013-10-31 03:44:00,
2013-10-30 23:55:00,46.0,41.0,30.08,SE,137,6.0,8.0,82,0.00,,,0.02,,2013-10-31 03:55:00,